sat.trackr.live / text

‹ back to catalog

STARLINK-35437

NORAD 66563 · 2025-268G

PAYLOAD ACTIVE UNKNOWN

§ Identity

Operator
Country
US
Launch date
2025-11-21
Launch site
AFETR
Launch vehicle
Mass (kg)
RCS (m²)

Purposes: comms

External: N2YO · Heavens-Above · Gunter

§ Orbital elements

Epoch: 2026-05-24T19:36:42.159168Z

Period
94.27 min
Inclination
43.0036°
Eccentricity
0.0001796
Mean motion
15.27590763 rev/d
Perigee alt
481.8 km
Apogee alt
484.2 km
Semi-major
6,861.2 km
B*
6.4286e-4
RAAN
277.0377°
Arg perigee
280.7163°
Mean anomaly
79.3487°
Rev number
2,960

§ Raw data

STARLINK-354371 66563U 25268G   26144.81715462  .00017476  00000+0  64286-3 0  99932 66563  43.0036 277.0377 0001796 280.7163  79.3487 15.27590763 29607

JSON: /api/v1/satellites/66563 · /tle

For live sub-satellite position, see the globe view (requires WebGL).

§ Visibility from observer

Set your observer location to see the next 7 days of passes ≥ 10°. The values pass through the URL so the page stays shareable.

No JS? Fill the form by hand. The geolocation button needs JavaScript.